[[{"header":{"parameterUnit":"m.s-1","parameterCategory":1,"la1":30.2991,"la2":30.254,"lo1":-89.0895,"lo2":-89.0444,"dy":0.0017,"dx":0.0017,"nx":28,"ny":28,"refTime":"2023-10-19T21:00:00:Z","depth":0,"parameterNumber":2,"parameterNumberName":"U-component_of_WINDS"},"data":[0,0,0,0,0,0,0,0,0,0,0,0,0,0,0,0,0,0,0,0,0,0,0,0,0,0,0,0,0,0,0,0,0,0,0,0,0,0,0,0,0,0,0,0,0,0,0,0,0,0,0,0,0,0,0,0,0,0,4.1554,4.1555,0,4.1605,4.1605,4.1606,4.1575,4.1574,4.1572,4.1571,4.1624,4.1626,4.1629,0,0,0,0,0,0,0,0,0,0,0,0,0,4.1436,4.1439,4.1554,4.1555,4.1555,4.1604,4.1605,4.1606,4.1576,4.1574,4.1572,4.157,4.1623,4.1626,4.1629,0,0,0,0,0,0,0,0,0,0,0,0,0,4.1487,4.1439,4.1554,4.1546,4.1546,4.1604,4.1605,4.1606,4.1576,4.1574,4.1572,4.157,4.1622,4.1626,4.163,4.1699,0,0,4.1642,4.1644,0,0,0,0,0,0,0,0,4.1484,4.1492,4.1547,4.1547,4.1547,4.1581,4.1583,4.1637,4.1576,4.1565,4.1571,4.1568,4.1611,4.1616,4.163,4.1701,4.1704,4.1643,4.1645,4.1647,4.1648,0,0,0,0,0,0,0,4.1481,4.1489,4.1574,4.1548,4.1548,4.1542,4.1547,4.1593,4.16,4.1565,4.1563,4.157,4.1611,4.1627,4.1631,4.1704,4.1643,4.1646,4.1649,4.165,4.1843,4.1845,0,0,0,0,0,0,4.1478,4.1487,4.1572,4.1576,4.151,4.1546,4.1551,4.1572,4.1599,4.1601,4.1572,4.1568,4.1621,4.1627,4.1633,4.1722,4.1647,4.1651,4.1653,4.184,4.1843,4.1846,0,0,0,0,0,0,4.1475,4.1485,4.157,4.1531,4.1541,4.155,4.1574,4.1575,4.159,4.1604,4.1605,4.1586,4.1619,4.1627,4.1685,4.1723,4.1653,4.1656,4.1837,4.1841,4.1845,4.1896,0,0,0,0,0,0,4.1472,4.1485,4.151,4.1531,4.1543,4.1619,4.1576,4.1577,4.1597,4.1593,4.1618,4.162,4.1618,4.1679,4.1689,4.1727,4.166,4.1834,4.1839,4.1843,4.1891,4.1901,4.191,0,0,0,0,0,4.1468,4.1521,4.1511,4.1522,4.1574,4.1622,4.1628,4.1625,4.16,4.1627,4.1637,4.1619,4.1716,4.1685,4.1696,4.1736,4.1831,4.1837,4.1843,4.1887,4.1899,4.191,0,0,0,0,0,0,4.1502,4.1523,4.1513,4.1574,4.1597,4.1616,4.1649,4.1638,4.1668,4.1663,4.1658,4.1664,4.1725,4.1735,4.17,4.1809,4.177,4.1779,4.18,4.1812,4.1821,4.1819,4.1663,0,0,0,0,0,4.1517,4.1552,4.1569,4.1621,4.1634,4.164,4.166,4.1656,4.168,4.1689,4.1702,4.1726,4.1763,4.1787,4.1821,4.1892,4.19,4.1925,4.1935,4.1943,4.1951,4.1996,4.201,4.1865,4.1865,4.1865,0,0,4.1547,4.1563,4.1586,4.1629,4.1646,4.1686,4.1648,4.1689,4.172,4.1695,4.1752,4.1763,4.1789,4.1856,4.1885,4.1866,4.1993,4.195,4.1956,4.1961,4.2004,4.2018,4.203,4.1869,4.1869,4.1868,0,0,4.1625,4.1638,4.1686,4.1705,4.1732,4.1737,4.1749,4.1772,4.1779,4.1836,4.182,4.1856,4.1918,4.194,4.1959,4.2051,4.2038,4.2062,4.2113,4.2157,4.2168,4.2179,4.2217,4.2231,4.207,4.207,4.207,0,4.166,4.1718,4.1713,4.1758,4.178,4.1761,4.1812,4.183,4.1867,4.1884,4.1862,4.1944,4.196,4.2034,4.2058,4.2072,4.2089,4.206,4.2167,4.2177,4.2187,4.2224,4.2238,4.2073,4.2073,4.2072,4.2072,0,4.1762,4.1803,4.1839,4.1878,4.1904,4.1951,4.1957,4.1983,4.1979,4.1987,4.2048,4.2067,4.2108,4.2125,4.2119,4.22,4.2189,4.2167,4.2129,4.2204,4.2239,4.2252,4.2078,4.2076,4.2075,4.2075,0,0,4.1862,4.19,4.1914,4.1934,4.1965,4.1998,4.2047,4.2088,4.2114,4.214,4.2185,4.224,4.2222,4.2244,4.2241,4.2279,4.2359,4.2254,4.2254,4.2278,4.2458,4.2478,4.2494,4.235,4.2352,4.2354,4.2458,0,4.1945,4.2031,4.2031,4.2112,4.2153,4.2137,4.2181,4.2206,4.2216,4.2254,4.2265,4.2307,4.2277,4.2291,4.2328,4.2342,4.2396,4.2333,4.2395,4.2398,4.2394,4.2511,4.253,4.2627,4.2471,4.2473,4.2474,0,4.2053,4.2087,4.2173,4.2204,4.2221,4.226,4.2301,4.2336,4.2366,4.2371,4.2399,4.2392,4.2446,4.2405,4.2482,4.244,4.2465,4.2476,4.248,4.2489,4.2443,4.2528,4.2657,4.2674,4.2495,4.2493,4.2492,0,4.2125,4.2191,4.2253,4.2269,4.2305,4.2334,4.2351,4.2378,4.2405,4.2441,4.246,4.2501,4.2525,4.2558,4.2564,4.2532,4.2645,4.2602,4.2654,4.2655,4.2681,4.268,4.2821,4.2689,4.2689,4.2689,4.2689,0,4.2221,4.2275,4.2286,4.2324,4.2387,4.2387,4.2449,4.2463,4.2489,4.2533,4.252,4.2561,4.2564,4.2608,4.2612,4.268,4.2689,4.2698,4.2699,4.2702,4.2702,4.2721,4.2717,4.2693,4.2692,4.2691,4.269,0,4.2312,4.232,4.2388,4.2417,4.2426,4.2472,4.2498,4.2537,4.2546,4.2602,4.2615,4.2631,4.2682,4.2691,4.275,4.2754,4.2837,4.2828,4.2827,4.2828,4.2882,4.2879,4.3044,4.3068,4.2916,4.2917,4.2919,0,4.2375,4.2417,4.2453,4.2481,4.25,4.2545,4.2573,4.2576,4.2607,4.2648,4.2683,4.2733,4.2774,4.2857,4.2875,4.2922,4.2919,4.2974,4.2926,4.2929,4.2927,4.2926,4.2934,4.2984,4.2986,4.2987,4.2988,0,4.2488,4.2491,4.2532,4.2577,4.2612,4.2647,4.268,4.2704,4.2712,4.2748,4.2801,4.2833,4.2896,4.2948,4.2996,4.3015,4.3006,4.3003,4.3019,4.3024,4.3024,4.3031,4.2858,4.2999,4.2998,4.2997,4.2997,4.2996,4.257,4.261,4.2643,4.2691,4.2717,4.2749,4.2789,4.2806,4.285,4.2902,4.2901,4.2961,4.2996,4.306,4.3083,4.3132,4.3114,4.3135,4.3142,4.3148,4.3157,4.3012,4.3139,4.3139,4.3139,4.3139,4.3138,0,4.2688,4.2709,4.2753,4.2802,4.2841,4.2827,4.2865,4.29,4.2953,4.2986,4.3027,4.3092,4.3144,4.3167,4.322,4.3255,4.3252,4.3269,4.3269,4.3275,4.3166,4.315,4.3271,4.3271,4.3271,4.3271,4.3271,4.3271,4.2754,4.2822,4.283,4.2913,4.2934,4.2993,4.3017,4.3049,4.3076,4.3149,4.3192,4.3208,4.3239,4.3294,4.3343,4.3349,4.3372,4.3392,4.3397,4.3295,4.3282,4.3269,4.3254,4.3395,4.3396,4.3502,4.3503,4.3504]},{"header":{"parameterUnit":"m.s-1","parameterCategory":1,"la1":30.2991,"la2":30.254,"lo1":-89.0895,"lo2":-89.0444,"dy":0.0017,"dx":0.0017,"nx":28,"ny":28,"refTime":"2023-10-19T21:00:00:Z","depth":0,"parameterNumber":3,"parameterNumberName":"V-component_of_WINDS"},"data":[0,0,0,0,0,0,0,0,0,0,0,0,0,0,0,0,0,0,0,0,0,0,0,0,0,0,0,0,0,0,0,0,0,0,0,0,0,0,0,0,0,0,0,0,0,0,0,0,0,0,0,0,0,0,0,0,0,0,0.5973,0.5974,0,0.609,0.6092,0.6093,0.6059,0.6056,0.6054,0.6052,0.6176,0.6182,0.6187,0,0,0,0,0,0,0,0,0,0,0,0,0,0.572,0.5724,0.5972,0.5974,0.5975,0.609,0.6092,0.6093,0.6059,0.6056,0.6053,0.605,0.6174,0.6181,0.6188,0,0,0,0,0,0,0,0,0,0,0,0,0,0.5833,0.5726,0.5972,0.5972,0.5973,0.609,0.6092,0.6094,0.606,0.6056,0.6052,0.6049,0.6172,0.618,0.6189,0.6314,0,0,0.6214,0.6218,0,0,0,0,0,0,0,0,0.5826,0.5842,0.5971,0.5972,0.5974,0.6056,0.6048,0.6168,0.6061,0.6027,0.6052,0.6047,0.6139,0.615,0.6181,0.632,0.6325,0.6215,0.622,0.6224,0.6226,0,0,0,0,0,0,0,0.5819,0.5837,0.6019,0.5972,0.5974,0.5967,0.5979,0.6071,0.6103,0.603,0.6027,0.6042,0.614,0.6173,0.6183,0.6327,0.6215,0.6222,0.6227,0.6231,0.6571,0.6575,0,0,0,0,0,0,0.5809,0.5831,0.6015,0.6023,0.5889,0.5974,0.5988,0.6033,0.6101,0.6108,0.6045,0.604,0.616,0.6173,0.6187,0.6336,0.6224,0.6231,0.6236,0.6567,0.6572,0.6576,0,0,0,0,0,0,0.5804,0.5826,0.6011,0.5926,0.5949,0.5982,0.6034,0.6038,0.607,0.6113,0.6118,0.6072,0.6158,0.6176,0.6282,0.634,0.6235,0.6243,0.6563,0.6569,0.6574,0.6636,0,0,0,0,0,0,0.5797,0.5824,0.5872,0.5927,0.5954,0.6103,0.6038,0.6043,0.6085,0.6079,0.614,0.6147,0.6156,0.6269,0.629,0.635,0.6249,0.6557,0.6565,0.6572,0.6629,0.6643,0.6656,0,0,0,0,0,0.5788,0.5886,0.5875,0.5897,0.6014,0.6106,0.6121,0.6129,0.6089,0.6138,0.6164,0.6145,0.6331,0.628,0.6303,0.6367,0.6554,0.6563,0.6572,0.6623,0.6641,0.6655,0,0,0,0,0,0,0.5839,0.5893,0.5881,0.6,0.6048,0.61,0.6161,0.6148,0.6209,0.6202,0.621,0.6224,0.6332,0.636,0.6303,0.649,0.6436,0.6451,0.6467,0.6484,0.6498,0.6488,0.6256,0,0,0,0,0,0.5863,0.5933,0.5977,0.6078,0.6103,0.6128,0.6168,0.617,0.6221,0.6241,0.6276,0.6327,0.6396,0.6442,0.6509,0.6633,0.6645,0.6688,0.6701,0.6712,0.6724,0.6789,0.6808,0.6606,0.6606,0.6606,0,0,0.5916,0.5954,0.5998,0.6089,0.6127,0.6198,0.6145,0.6224,0.6278,0.6254,0.6355,0.6382,0.6439,0.6554,0.6607,0.6581,0.6782,0.6723,0.6732,0.6738,0.68,0.6819,0.6836,0.6612,0.6611,0.661,0,0,0.6047,0.6084,0.617,0.6209,0.6265,0.6281,0.6302,0.6355,0.6371,0.6473,0.6455,0.652,0.664,0.668,0.6717,0.6861,0.6845,0.6883,0.6953,0.7017,0.7033,0.7047,0.7096,0.7114,0.6895,0.6895,0.6895,0,0.6106,0.6212,0.6217,0.6297,0.6337,0.6316,0.6404,0.6441,0.6517,0.6545,0.6516,0.6664,0.6701,0.6824,0.6859,0.689,0.6913,0.6876,0.703,0.7044,0.7057,0.7104,0.7123,0.6899,0.6899,0.6898,0.6898,0,0.628,0.6354,0.6417,0.6489,0.6536,0.662,0.6637,0.6684,0.6681,0.67,0.6803,0.6846,0.692,0.695,0.6949,0.7072,0.7054,0.7027,0.6973,0.708,0.7125,0.7143,0.6905,0.6904,0.6902,0.6901,0,0,0.6447,0.6519,0.6542,0.6573,0.6633,0.6691,0.6773,0.6843,0.6883,0.6936,0.7004,0.7105,0.7079,0.7121,0.7124,0.718,0.7289,0.7146,0.7147,0.7169,0.7425,0.7443,0.7464,0.7279,0.7282,0.7285,0.7419,0,0.6582,0.6725,0.673,0.686,0.6928,0.6909,0.698,0.7025,0.7044,0.7105,0.7127,0.7197,0.716,0.7184,0.7238,0.7264,0.734,0.7255,0.7342,0.7345,0.7326,0.7488,0.7509,0.7633,0.7437,0.744,0.7442,0,0.6759,0.6815,0.6951,0.6999,0.7028,0.7091,0.7155,0.7213,0.7263,0.7274,0.7318,0.7313,0.7396,0.734,0.7455,0.7396,0.7432,0.745,0.7455,0.7462,0.7399,0.7498,0.7673,0.7691,0.747,0.7468,0.7466,0,0.6865,0.6974,0.7069,0.7097,0.7156,0.7201,0.7228,0.7274,0.7315,0.7371,0.7398,0.7464,0.7499,0.7551,0.7563,0.7521,0.7676,0.7622,0.7686,0.7686,0.7719,0.7717,0.7901,0.7745,0.7745,0.7745,0.7744,0,0.7014,0.7097,0.7117,0.7175,0.7268,0.7274,0.7365,0.7389,0.743,0.7492,0.7481,0.754,0.7553,0.7615,0.7626,0.7717,0.7734,0.7744,0.7746,0.7744,0.7743,0.7767,0.7758,0.775,0.7748,0.7747,0.7747,0,0.7147,0.7164,0.7265,0.7312,0.7326,0.7392,0.7432,0.7488,0.7505,0.7584,0.7603,0.7631,0.7702,0.7719,0.7806,0.7812,0.792,0.7915,0.7903,0.7902,0.7965,0.7958,0.817,0.8197,0.8025,0.8027,0.8028,0,0.724,0.7303,0.7356,0.7396,0.7425,0.749,0.7531,0.754,0.7583,0.7643,0.7691,0.7761,0.7817,0.7933,0.7961,0.8026,0.8021,0.809,0.803,0.8026,0.8019,0.8014,0.802,0.8101,0.8103,0.8105,0.8106,0,0.7403,0.7407,0.7467,0.7528,0.7577,0.7627,0.7674,0.7708,0.7722,0.7772,0.7844,0.7887,0.7973,0.8043,0.8108,0.8136,0.8123,0.8124,0.8142,0.8141,0.813,0.8135,0.7932,0.8119,0.8118,0.8117,0.8116,0.8116,0.7518,0.7572,0.7617,0.7683,0.7718,0.7762,0.7816,0.7839,0.7899,0.7968,0.797,0.8048,0.8095,0.8181,0.8212,0.8273,0.8252,0.8279,0.8285,0.8291,0.8295,0.8122,0.8286,0.8285,0.8285,0.8285,0.8285,0,0.7678,0.7705,0.7766,0.7831,0.7882,0.7865,0.7915,0.796,0.8028,0.8072,0.8127,0.8208,0.8275,0.8307,0.8373,0.8416,0.8411,0.8432,0.8428,0.8435,0.8312,0.8289,0.8435,0.8434,0.8434,0.8434,0.8434,0.8434,0.7767,0.7857,0.7867,0.7974,0.8001,0.8076,0.8107,0.8147,0.8181,0.8273,0.8327,0.8347,0.8387,0.8454,0.8514,0.8522,0.8546,0.857,0.8574,0.8459,0.8444,0.8429,0.8407,0.8575,0.8575,0.8692,0.8693,0.8693]}]]